Skip Page Navigation
NASA JPL Caltech
NASA Logo - Jet Propulsion Laboratory + View the NASA Portal
+ Near-Earth Object (NEO) Program
Search JPL
JPL Home Earth Solar System Stars & Galaxies Technology
JPL Solar System Dynamics
BODIES ORBITS EPHEMERIDES TOOLS PHYSICAL DATA DISCOVERY FAQ SITE MAP
JPL Small-Body Database Browser
Search: [ help ]  
6133 (1990 RC3)
Classification: Main-belt Asteroid          SPK-ID: 2006133
Ephemeris | Orbit Diagram | Orbital Elements | Physical Parameters | Discovery Circumstances ]

[ show orbit diagram ]
Orbital Elements at Epoch 2456800.5 (2014-May-23.0) TDB
Reference: JPL 6 (heliocentric ecliptic J2000)
 Element Value Uncertainty (1-sigma)   Units 
e .1789120144541898 5.7183e-08  
a 2.473297707559505 1.4765e-08 AU
q 2.030795032355104 1.4175e-07 AU
i 2.590864351712115 6.1481e-06 deg
node 217.2280385781658 0.00012463 deg
peri 66.84583265068898 0.00012563 deg
M 84.27465573128649 1.5948e-05 deg
tp 2456467.911287732363
(2013-Jun-24.41128773)
6.2503e-05 JED
period 1420.734803095725
3.89
1.2723e-05
3.483e-08
d
yr
n .2533900058023314 2.2691e-09 deg/d
Q 2.915800382763905 1.7407e-08 AU
  Orbit Determination Parameters
   # obs. used (total)      939  
   data-arc span      12897 days (35.31 yr)  
   first obs. used      1978-07-06  
   last obs. used      2013-10-27  
   planetary ephem.      DE431  
   SB-pert. ephem.      SB431-BIG16  
   condition code      0  
   fit RMS      .52299  
   data source      ORB  
   producer      Otto Matic  
   solution date      2014-Jun-09 18:19:23  

Additional Information
 Earth MOID = 1.01553 AU 
 T_jup = 3.459 
[ show covariance matrix ]

Ephemeris | Orbit Diagram | Orbital Elements | Physical Parameters | Discovery Circumstances ]

Physical Parameter Table
Parameter Symbol Value Units Sigma Reference Notes
absolute magnitude H 14.0 mag n/a MPO265990  

6133 (1990 RC3)          Discovered 1990-Sep-14 by Holt, H. E. at Palomar (675)
Reference: DISCOVERY.DBLast Updated: 2003-08-29

Alternate Designations
 1990 RC3 = 1978 NG2 = 1986 PO6 
Ephemeris | Orbit Diagram | Orbital Elements | Physical Parameters | Discovery Circumstances ]
ABOUT SSD CREDITS/AWARDS PRIVACY/COPYRIGHT GLOSSARY LINKS
FirstGov 2014-Jul-24 17:44 UT
(server date/time)  
NASA Home Page
Site Manager:   Donald K. Yeomans
Webmaster  Alan B. Chamberlin